Hourly Data Report for May 13, 2012

All times are specified in Local Standard Time (LST). Add 1 hour to adjust for Daylight Saving Time where and when it is observed.

HAMILTON A
ONTARIO

43°10'25.000" N
79°56'06.000" W
237.70 m
6153193
71263
YHM

Download Data

Hourly Data (May 2012)
Hourly Data Report for May 13, 2012
Temp Definition
°C
Dew Point Temp Definition
°C
Rel Hum Definition
%
Wind Dir Definition
10's deg

Wind Spd Definition
km/h
Visibility Definition
km
Stn Press Definition
kPa
Hmdx Definition


Wind Chill Definition


Weather Definition


TIME
00:00 14.4 10.3 76 30 9 10.0 99.40     LegendNANA
01:00 14.2 7.8 65 32 12 10.0 99.38     Mostly Cloudy
02:00 13.2 5.2 58 32 13 10.0 99.36     LegendNANA
03:00 12.8 4.0 55 32 12 10.0 99.37     LegendNANA
04:00 12.7 5.0 59 29 11 10.0 99.40     Cloudy
05:00 12.0 6.5 69 26 9 10.0 99.39     LegendNANA
06:00 11.8 6.8 71   0 10.0 99.43     LegendNANA
07:00 12.1 6.4 68 2 6 10.0 99.48     Rain Showers
08:00 12.9 5.9 62 32 7 10.0 99.50     LegendNANA
09:00 14.1 5.5 56 2 4 10.0 99.46     LegendNANA
10:00 15.4 6.5 55 35 10 10.0 99.46     Mostly Cloudy
11:00 17.1 6.1 48 27 6 10.0 99.44     LegendNANA
12:00 17.9 7.4 50 36 5 10.0 99.39     LegendNANA
13:00 19.5 9.2 51 23 11 10.0 99.34     Mostly Cloudy
14:00 20.4 9.5 49 26 14 10.0 99.29     LegendNANA
15:00 21.2 9.6 47 28 8 10.0 99.21     LegendNANA
16:00 20.5 9.3 48 2 6 10.0 99.17     Mostly Cloudy
17:00 19.9 9.6 51 6 13 10.0 99.14     LegendNANA
18:00 17.9 8.6 54 7 12 10.0 99.14     LegendNANA
19:00 16.1 8.7 61 7 9 10.0 99.13     Mostly Cloudy
20:00 15.7 8.0 60 7 8 10.0 99.15     LegendNANA
21:00 15.1 8.4 64 19 7 10.0 99.19     LegendNANA
22:00 13.3 7.8 69 20 10 0.0 99.17     Mostly Cloudy
23:00 12.2 7.9 75 24 6 10.0 99.15     LegendNANA

Notes on Data Quality.

Legend

  • E = Estimated
  • M = Missing
  • NA = Not Available
Date modified: